Location: Charleston
(38.3500°N, 81.6330°W)
Time: 10:22:51
(UTC-05:00)

Daily predictions for brighter satellites

Satellite Brightness Start Highest point End
(mag) Time Altitude Azimuth Time Altitude Azimuth Time Altitude Azimuth
SL-8 Rocket 4.1 17:29:13 10° N 17:35:24 84° W 17:41:33 10° S
SL-27 R/B 4.1 17:32:32 10° NNW 17:36:00 41° WSW 17:39:23 10° S
Thor Agena Rocket 3.7 17:32:13 10° NNE 17:37:23 58° ESE 17:42:34 10° S
Tiangong 1 1.3 17:36:17 10° W 17:39:17 57° NNW 17:42:17 10° ENE
Cosmos 1743 4.1 17:37:50 10° NNE 17:40:35 18° ENE 17:43:18 10° ESE
Cosmos 1500 3.7 17:36:59 10° N 17:40:35 37° E 17:44:11 10° SSE
NOSS 2-1 (E) 4.2 17:37:09 10° S 17:40:36 32° ESE 17:44:20 10° NE
Cosmos 2251 Rocket 3.9 17:35:35 10° NNW 17:40:55 72° WSW 17:46:11 10° S
Cosmos 375 4.3 17:37:20 10° NNW 17:41:40 62° NE 17:45:27 10° SE
Cosmos 2366 rocket 4.1 17:42:38 10° N 17:49:01 90° ENE 17:55:17 10° S
AQUARIUS 4.1 17:44:56 10° SSE 17:49:22 66° ENE 17:53:51 10° N
Cosmos 1484 Rocket 3.7 17:50:27 10° SE 17:53:31 25° ENE 17:56:36 10° NNE
PAYLOAD A 4.5 17:52:59 10° S 17:57:46 64° W 18:02:46 10° NNW
Cosmos 1238 Rocket 3.8 17:55:22 10° SSW 17:58:06 35° W 18:01:03 10° N
Cosmos 2218 Rocket 4.5 17:53:08 10° NNW 17:59:19 65° W 18:05:25 10° S
Meteor 2-21 4.5 17:53:52 10° N 17:59:58 61° E 18:05:59 10° SSE
USA 234 3.4 17:53:54 10° NE 18:00:27 76° NW 18:06:57 10° SW
Cosmos 1975 2.8 17:56:25 10° N 18:00:29 90° NNW 18:04:30 10° S
CZ-4 R/B 2.1 18:01:45 10° S 18:05:51 58° W 18:09:56 10° NNW
Meteor 1-13 Rocket 4.3 18:02:06 10° S 18:07:41 63° E 18:13:27 10° NNE
MSX 3.8 18:03:11 10° SSE 18:08:53 69° ENE 18:14:35 10° N
Cosmos 2369 Rocket 4.1 18:08:03 10° ESE 18:08:55 11° ESE 18:08:55 11° ESE
CORIOLIS 4.2 18:07:38 10° SSE 18:13:03 84° WSW 18:18:28 10° NNW
MONITOR-E 4.3 18:10:19 10° SSE 18:13:26 55° ENE 18:16:35 10° N
Meteor 2-4 Rocket 4.1 18:08:39 10° SSE 18:13:33 38° E 18:18:27 10° NNE
Abrixas 2.6 18:10:39 10° NW 18:13:33 51° NNE 18:15:00 25° E
CZ-2C R/B 2.9 18:09:04 10° S 18:14:02 68° WSW 18:19:10 10° NNW
NOSS 3-4 (A) 4.3 18:08:04 10° NNW 18:14:34 39° NE 18:21:24 10° ESE
NOSS 3-4 (C) 4.3 18:08:10 10° NNW 18:14:39 38° NE 18:21:29 10° ESE
COSMO-SKYMED 1 2.8 18:10:36 10° NNE 18:14:49 49° E 18:19:01 10° S
COSMOS 2441 4.3 18:12:30 10° SSE 18:17:19 69° ENE 18:22:13 10° N
Meteor 2-14 Rocket 4.4 18:11:58 10° N 18:18:04 62° E 18:24:07 10° SSE
CZ-3B DEB 3.4 18:14:25 10° W 18:18:16 35° NNW 18:25:57 12° NE
Cosmos 2056 Rocket 4.0 18:15:07 10° S 18:20:08 41° ESE 18:23:51 17° NE
Cosmos 1821 Rocket 4.1 18:16:37 10° N 18:22:31 50° E 18:28:24 10° SSE
Cosmos 921 Rocket 3.1 18:20:01 10° SSW 18:24:14 78° WNW 18:28:36 10° NNE
Timation 2 Rocket 4.2 18:17:37 10° NNW 18:24:30 87° ENE 18:31:24 10° SSE
Cosmos 1025 Rocket 3.2 18:20:19 10° SSE 18:24:30 48° E 18:28:12 13° NNE
Cosmos 1624 Rocket 4.0 18:28:01 10° S 18:33:07 60° ESE 18:36:48 19° NNE
Cosmos 1340 4.4 18:33:34 10° SSE 18:34:57 18° SE 18:34:57 18° SE
YAOGAN 1 4.1 18:33:20 10° SSW 18:37:21 37° W 18:41:23 10° NNW
Cosmos 1371 Rocket 4.0 18:33:25 10° SSW 18:38:47 85° ESE 18:43:23 14° NNE
Cosmos 2297 4.5 18:33:48 10° SW 18:39:15 51° WNW 18:44:45 10° NNE
Meteor 2-16 Rocket 4.4 18:37:03 10° N 18:43:10 89° E 18:49:15 10° S
METEOR-M 4.3 18:42:58 10° SE 18:48:03 47° ENE 18:53:09 10° N
Cosmos 2278 Rocket 4.4 18:44:58 10° WSW 18:49:11 21° NW 18:53:27 10° N
Cosmos 1666 2.5 18:51:05 10° N 18:54:58 81° E 18:58:51 10° S
GEOS 3 Rocket 3.8 19:00:07 45° NE 19:00:10 45° NE 19:05:01 10° NNW
Delta 2 Rocket 3.5 19:01:53 10° W 19:05:34 57° S 19:05:39 56° S
Cosmos 1833 Rocket 3.5 19:03:14 10° NNW 19:08:41 51° WSW 19:14:05 10° S
Cosmos 1727 Rocket 3.9 19:02:58 10° S 19:09:01 58° E 19:10:52 42° NE
Cosmos 1452 Rocket 3.9 19:04:06 10° S 19:08:13 43° SE 19:08:13 43° SE
Cosmos 1190 Rocket 3.8 19:06:57 10° NNW 19:12:13 80° ENE 19:15:36 22° SSE
Tiangong 1 3.6 19:12:59 10° WNW 19:14:01 18° NW 19:14:01 18° NW
Cosmos 2082 Rocket 3.6 19:10:39 10° NW 19:15:50 37° WSW 19:21:01 10° S
Cosmos 1892 Rocket 3.6 19:12:34 10° SSW 19:16:54 75° W 19:17:15 70° NW
Meteor 1-28 Rocket 4.4 19:21:16 36° NW 19:21:58 40° WNW 19:25:31 10° SW
FALCON 9 R/B 3.2 19:00:09 10° W 19:22:10 72° S 19:24:36 46° ESE
Cosmos 1726 Rocket 3.9 19:21:26 10° NNW 19:25:51 63° W 19:30:15 10° S
Okean 2 4.4 19:25:50 10° SSW 19:29:49 45° W 19:30:08 44° WNW
Cosmos 1339 Rocket 4.4 19:39:56 10° S 19:45:55 81° W 19:45:55 81° W
Cosmos 2369 Rocket 3.0 19:46:57 10° SSW 19:50:46 45° SSW 19:50:46 45° SSW
BREEZE M DEB (TANK) 4.4 20:11:50 10° WNW 20:17:13 82° SW 20:18:05 75° SSE
ATLAS 3B CENTAUR R/B 4.1 20:09:14 10° W 20:22:16 35° SSW 20:23:21 34° SSW
